HULIANWANG DIGUI-11

导读 | 豆包AI

HULIANWANG DIGUI-11是中国于2025年2月11日发射的互联网低轨卫星,隶属于中国低轨互联网星座建设序列,旨在搭建覆盖全球的高速天基互联网络,为全球各类用户提供泛在、稳定的宽带通信服务,助力天地一体化信息网络构建,推动卫星互联网产业商业化应用发展,是中国星座组网进程中的重要环节。

基本信息
目录编号:
62971
目录名称:
HULIANWANG DIGUI-11
国际标识:
2025-030A
轨道中心:
EARTH
卫星名称:
HULIANWANG DIGUI-11
卫星全名:
HULIANWANG DIGUI-11
卫星状态:
在轨 (已飞行395 天)
发射日期:
2025-02-11 UTC
国别 :
中国 (CN)
星等 :
--
轨道信息
数据来源 国际轨道数据 AOE轨道数据
星历时间 2026-03-13T22:34:03+0800
9小时前
查看轨道信息
2026-03-12T05:00:00+0800
2天前
查看轨道信息
半长轴 7527.397km 7527.399km
偏心率 0.0000843 0.0000761
轨道倾角 50.000° 49.999°
近地点辐角 198.396° 203.928°
升交点赤经 218.645° 224.858°
平近点角 161.688° 142.444°
近地点 1148.625km 1148.689km
远地点 1149.895km 1149.835km
周期 108.325分钟 108.325分钟
每日圈数 13.293384 13.293379
详细信息
使用方式:
暂无
2D轨道图
3D轨道图
轨道高度分析图
轨道倾角分析图
轨道综合分析图
查看轨道综合分析图